Weather History for Howell, MI

Change the Weather History Date:

Monday, March 25, 2013

  Actual Average Record
Temperature  
Mean Temperature 34 °F -  
Max Temperature 37 °F 47 °F 68 °F (2004)
Min Temperature 30 °F 30 °F 14 °F (2001)
Degree Days  
Heating Degree Days 32    
Moisture  
Dew Point 24 °F    
Average Humidity 66    
Maximum Humidity 79    
Minimum Humidity 55    
Precipitation  
Precipitation 0.00 in - - ()
Sea Level Pressure  
Sea Level Pressure 29.69 in    
Wind  
Wind Speed 10 mph (NNE)    
Max Wind Speed 16 mph    
Max Gust Speed 28 mph    
Visibility 10 miles    
Events Snow    
Averages and records for this station are not official NWS values.
T = Trace of Precipitation, MM = Missing Value Source: NWS Daily Summary

Daily Weather History Graph

Daily Weather History Graph

Search for Another Location

Airport:

Trip Planner

Search our weather history database for the weather conditions in past years. The results will help you decide how hot, cold, wet, or windy it might be!

Date:

Astronomy

Mar. 25, 2013 Rise Set
Actual Time 7:30 AM EDT 7:54 PM EDT
Civil Twilight 7:01 AM EDT 8:22 PM EDT
Nautical Twilight 6:28 AM EDT 8:55 PM EDT
Astronomical Twilight 5:54 AM EDT 9:30 PM EDT
Moon 6:23 PM EDT (3/25) 6:14 AM EDT (3/25)
Length of Visible Light 13h 20m
Length of Day
12h 24m
Waxing Gibbous, 96% of the Moon is Illuminated
Mar 25
Waxing Gibbous
Mar 27
Full
Apr 3
Last Quarter
Apr 10
New
Apr 18
First Quarter

Hourly Weather History & Observations

Time (EDT) Temp. Windchill Dew Point Humidity Pressure Visibility Wind Dir Wind Speed Gust Speed Precip Events Conditions
12:15 AM 30.7 °F 24.9 °F 22.1 °F 70% 29.64 in 10.0 mi NE 5.8 mph - N/A   Overcast
12:34 AM 30.9 °F 21.7 °F 22.1 °F 70% 29.63 in 10.0 mi NNE 11.5 mph - N/A   Overcast
12:54 AM 30.9 °F 21.2 °F 22.1 °F 70% 29.63 in 10.0 mi NNE 12.7 mph 18.4 mph N/A   Overcast
1:15 AM 30.9 °F 23.5 °F 21.9 °F 69% 29.63 in 10.0 mi NNE 8.1 mph - N/A   Overcast
1:34 AM 31.1 °F 22.4 °F 22.1 °F 69% 29.62 in 10.0 mi NNE 10.4 mph 16.1 mph N/A   Overcast
1:54 AM 31.1 °F 23.1 °F 22.1 °F 69% 29.62 in 10.0 mi NNE 9.2 mph 16.1 mph N/A   Overcast
2:15 AM 31.5 °F 23.5 °F 21.9 °F 68% 29.62 in 10.0 mi NNE 9.2 mph - N/A   Overcast
2:34 AM 31.6 °F 23.1 °F 21.9 °F 67% 29.62 in 10.0 mi NNE 10.4 mph - N/A   Overcast
2:54 AM 31.6 °F 24.4 °F 21.9 °F 67% 29.61 in 10.0 mi NNE 8.1 mph - N/A   Overcast
3:14 AM 31.6 °F 23.7 °F 21.9 °F 67% 29.60 in 10.0 mi NNE 9.2 mph 16.1 mph N/A   Overcast
3:34 AM 31.8 °F 23.9 °F 21.9 °F 67% 29.59 in 10.0 mi NE 9.2 mph - N/A   Overcast
3:55 AM 31.8 °F 24.6 °F 21.9 °F 67% 29.59 in 10.0 mi NNE 8.1 mph 16.1 mph N/A   Overcast
4:14 AM 32.0 °F 22.5 °F 21.9 °F 66% 29.58 in 10.0 mi NNE 12.7 mph 18.4 mph N/A   Overcast
4:34 AM 31.8 °F 23.3 °F 22.1 °F 67% 29.58 in 10.0 mi NNE 10.4 mph - N/A   Mostly Cloudy
4:55 AM 32.0 °F 22.5 °F 22.1 °F 67% 29.57 in 10.0 mi NE 12.7 mph 17.3 mph N/A   Scattered Clouds
5:14 AM 32.0 °F 23.6 °F 22.1 °F 67% 29.57 in 10.0 mi NE 10.4 mph 18.4 mph N/A   Mostly Cloudy
5:34 AM 32.0 °F 23.0 °F 22.1 °F 67% 29.57 in 10.0 mi NE 11.5 mph 19.6 mph N/A   Mostly Cloudy
5:54 AM 32.0 °F 22.1 °F 22.3 °F 67% 29.57 in 10.0 mi NE 13.8 mph 19.6 mph N/A   Overcast
6:14 AM 31.8 °F 23.9 °F 22.5 °F 68% 29.57 in 10.0 mi NE 9.2 mph 17.3 mph N/A   Overcast
6:35 AM 32.0 °F 24.2 °F 22.6 °F 68% 29.57 in 10.0 mi NE 9.2 mph 18.4 mph N/A   Overcast
6:54 AM 31.8 °F 23.3 °F 22.8 °F 69% 29.57 in 10.0 mi NE 10.4 mph 17.3 mph N/A   Overcast
7:14 AM 32.0 °F 22.1 °F 22.8 °F 69% 29.58 in 10.0 mi NE 13.8 mph 21.9 mph N/A   Overcast
7:35 AM 32.0 °F 23.0 °F 23.0 °F 69% 29.59 in 10.0 mi NE 11.5 mph 24.2 mph N/A   Overcast
7:54 AM 32.0 °F 22.1 °F 23.0 °F 69% 29.60 in 10.0 mi NE 13.8 mph 20.7 mph N/A   Overcast
8:14 AM 32.0 °F 22.5 °F 22.6 °F 68% 29.60 in 10.0 mi NNE 12.7 mph 18.4 mph N/A   Overcast
8:35 AM 32.0 °F 24.2 °F 22.1 °F 67% 29.60 in 10.0 mi NE 9.2 mph 17.3 mph N/A   Overcast
8:54 AM 32.0 °F 23.0 °F 22.1 °F 67% 29.61 in 10.0 mi NNE 11.5 mph 16.1 mph N/A   Overcast
9:14 AM 32.4 °F 24.0 °F 22.1 °F 66% 29.62 in 10.0 mi NE 10.4 mph 19.6 mph N/A   Overcast
9:35 AM 32.4 °F 23.5 °F 22.1 °F 66% 29.62 in 10.0 mi NNE 11.5 mph 18.4 mph N/A   Overcast
9:54 AM 32.5 °F 23.2 °F 22.1 °F 65% 29.62 in 10.0 mi NE 12.7 mph 20.7 mph N/A   Overcast
10:14 AM 33.1 °F 24.9 °F 22.1 °F 64% 29.63 in 10.0 mi NNE 10.4 mph 21.9 mph N/A   Overcast
10:35 AM 33.8 °F 23.5 °F 21.9 °F 62% 29.63 in 10.0 mi NNE 16.1 mph 21.9 mph N/A   Overcast
10:54 AM 34.2 °F 25.7 °F 21.7 °F 60% 29.63 in 10.0 mi NNE 11.5 mph 24.2 mph N/A   Overcast
11:14 AM 34.2 °F 24.4 °F 21.2 °F 59% 29.64 in 10.0 mi NE 15.0 mph 25.3 mph N/A   Overcast
11:35 AM 34.7 °F 27.5 °F 21.9 °F 60% 29.65 in 10.0 mi NNE 9.2 mph 17.3 mph N/A   Overcast
11:54 AM 34.9 °F 25.7 °F 22.1 °F 60% 29.65 in 10.0 mi NNE 13.8 mph 27.6 mph N/A   Overcast
12:14 PM 35.8 °F 26.9 °F 21.7 °F 57% 29.65 in 10.0 mi NNE 13.8 mph 21.9 mph N/A   Overcast
12:35 PM 36.5 °F 29.7 °F 21.6 °F 55% 29.65 in 10.0 mi NNE 9.2 mph 20.7 mph N/A   Overcast
12:54 PM 36.1 °F 27.3 °F 21.9 °F 56% 29.66 in 10.0 mi NNE 13.8 mph 19.6 mph N/A   Overcast
1:15 PM 36.0 °F 28.5 °F 22.1 °F 57% 29.66 in 10.0 mi North 10.4 mph 20.7 mph N/A   Overcast
1:34 PM 36.0 °F 28.5 °F 22.1 °F 57% 29.67 in 10.0 mi North 10.4 mph 26.5 mph N/A   Overcast
1:54 PM 36.3 °F 30.1 °F 21.9 °F 56% 29.68 in 10.0 mi North 8.1 mph 18.4 mph N/A   Overcast
2:15 PM 36.0 °F 29.0 °F 21.7 °F 56% 29.68 in 10.0 mi NNE 9.2 mph 18.4 mph N/A   Overcast
2:34 PM 36.7 °F 30.5 °F 22.8 °F 57% 29.68 in 10.0 mi North 8.1 mph 17.3 mph N/A   Overcast
2:54 PM 37.0 °F 29.8 °F 22.3 °F 55% 29.68 in 10.0 mi North 10.4 mph 20.7 mph N/A   Overcast
3:15 PM 37.9 °F 30.5 °F 22.8 °F 55% 29.69 in 10.0 mi North 11.5 mph 17.3 mph N/A   Overcast
3:34 PM 37.6 °F 30.0 °F 24.1 °F 58% 29.70 in 10.0 mi North 11.5 mph 20.7 mph N/A   Overcast
3:54 PM 37.4 °F 30.3 °F 25.7 °F 63% 29.70 in 10.0 mi NNW 10.4 mph - N/A   Overcast
4:15 PM 36.5 °F 27.8 °F 25.7 °F 65% 29.71 in 10.0 mi North 13.8 mph 19.6 mph N/A   Overcast
4:34 PM 36.5 °F 28.2 °F 26.6 °F 67% 29.72 in 10.0 mi North 12.7 mph - N/A   Overcast
4:54 PM 36.5 °F 29.7 °F 26.6 °F 67% 29.73 in 10.0 mi North 9.2 mph 16.1 mph N/A   Overcast
5:15 PM 36.1 °F 29.3 °F 26.6 °F 68% 29.74 in 10.0 mi North 9.2 mph - N/A   Overcast
5:34 PM 36.3 °F 28.9 °F 26.6 °F 68% 29.75 in 10.0 mi North 10.4 mph - N/A   Overcast
5:54 PM 36.0 °F 29.6 °F 26.6 °F 69% 29.76 in 10.0 mi North 8.1 mph 19.6 mph N/A   Overcast
6:14 PM 36.0 °F 28.5 °F 26.1 °F 67% 29.77 in 10.0 mi North 10.4 mph 18.4 mph N/A   Overcast
6:34 PM 35.8 °F 27.8 °F 25.7 °F 67% 29.78 in 10.0 mi North 11.5 mph - N/A   Overcast
6:55 PM 35.8 °F 30.1 °F 25.3 °F 66% 29.79 in 10.0 mi North 6.9 mph - N/A   Overcast
7:14 PM 35.8 °F 27.8 °F 25.5 °F 66% 29.80 in 10.0 mi North 11.5 mph 18.4 mph N/A   Overcast
7:34 PM 35.6 °F 28.6 °F 26.1 °F 68% 29.81 in 10.0 mi North 9.2 mph - N/A   Overcast
7:54 PM 35.1 °F 29.3 °F 26.2 °F 70% 29.83 in 10.0 mi North 6.9 mph - N/A   Overcast
8:14 PM 35.1 °F 29.3 °F 26.4 °F 71% 29.84 in 10.0 mi North 6.9 mph - N/A   Overcast
8:35 PM 34.9 °F 29.9 °F 26.2 °F 71% 29.84 in 10.0 mi North 5.8 mph - N/A   Overcast
8:54 PM 34.9 °F 30.8 °F 26.2 °F 71% 29.85 in 10.0 mi North 4.6 mph - N/A   Overcast
9:14 PM 34.9 °F 30.8 °F 25.7 °F 69% 29.86 in 10.0 mi North 4.6 mph - N/A   Overcast
9:35 PM 34.9 °F 30.8 °F 25.5 °F 69% 29.87 in 10.0 mi North 4.6 mph - N/A   Overcast
9:54 PM 35.1 °F 31.0 °F 25.5 °F 68% 29.88 in 10.0 mi North 4.6 mph - N/A   Overcast
10:14 PM 34.9 °F 30.8 °F 25.7 °F 69% 29.88 in 10.0 mi North 4.6 mph - N/A   Overcast
10:35 PM 35.1 °F 27.9 °F 25.7 °F 69% 29.89 in 10.0 mi NNW 9.2 mph - N/A   Overcast
10:54 PM 35.1 °F 29.3 °F 25.7 °F 69% 29.89 in 10.0 mi NNW 6.9 mph - N/A   Overcast
11:14 PM 34.9 °F 28.3 °F 25.5 °F 69% 29.90 in 10.0 mi NNW 8.1 mph - N/A   Overcast
11:35 PM 34.0 °F 28.0 °F 27.0 °F 75% 29.91 in 10.0 mi NW 6.9 mph - N/A Snow Light Snow
11:54 PM 33.8 °F 27.7 °F 27.9 °F 79% 29.91 in 10.0 mi NW 6.9 mph - N/A   Overcast